| time (UTC) | temp C | wind direction | speed KPH | gust KPH | rain 1hr cm | rain 24hr cm | rain mn cm | humidity % | barometer mb |
| 20260506180048 | 7 | 339 | 9.7 | 20.9 | 0.00 | 0.00 | 0.00 | 61 | 1015.9 |
| 20260506174547 | 7 | 291 | 6.4 | 27.4 | 0.00 | 0.00 | 0.00 | 63 | 1015.8 |
| 20260506173049 | 7 | 359 | 11.3 | 19.3 | 0.00 | 0.00 | 0.00 | 60 | 1015.8 |
| 20260506171556 | 7 | 359 | 8.0 | 25.7 | 0.00 | 0.00 | 0.00 | 60 | 1015.7 |
| 20260506170047 | 7 | 325 | 6.4 | 25.7 | 0.00 | 0.00 | 0.00 | 61 | 1015.6 |
| 20260506164546 | 8 | 4 | 8.0 | 20.9 | 0.00 | 0.00 | 0.00 | 59 | 1015.8 |
| 20260506163043 | 8 | 320 | 11.3 | 24.1 | 0.00 | 0.00 | 0.00 | 59 | 1015.7 |
| 20260506161544 | 8 | 303 | 11.3 | 24.1 | 0.00 | 0.00 | 0.00 | 60 | 1015.7 |
| 20260506160057 | 8 | 322 | 12.9 | 24.1 | 0.00 | 0.00 | 0.00 | 60 | 1015.6 |
| 20260506154542 | 8 | 301 | 12.9 | 24.1 | 0.00 | 0.00 | 0.00 | 57 | 1015.7 |
| 20260506153043 | 9 | 338 | 6.4 | 22.5 | 0.00 | 0.00 | 0.00 | 55 | 1015.7 |
| 20260506151543 | 9 | 321 | 9.7 | 19.3 | 0.00 | 0.00 | 0.00 | 55 | 1015.8 |
| 20260506150040 | 9 | 12 | 6.4 | 16.1 | 0.00 | 0.00 | 0.00 | 54 | 1015.8 |
| 20260506144553 | 8 | 342 | 9.7 | 22.5 | 0.00 | 0.00 | 0.00 | 55 | 1015.8 |
| 20260506143039 | 8 | 359 | 12.9 | 22.5 | 0.00 | 0.00 | 0.00 | 57 | 1015.9 |
| 20260506141539 | 9 | 315 | 12.9 | 20.9 | 0.00 | 0.00 | 0.00 | 57 | 1016.0 |
| 20260506140038 | 9 | 308 | 9.7 | 25.7 | 0.00 | 0.00 | 0.00 | 59 | 1016.0 |
| 20260506134537 | 9 | 311 | 8.0 | 22.5 | 0.00 | 0.00 | 0.00 | 58 | 1016.0 |
| 20260506133039 | 9 | 320 | 8.0 | 20.9 | 0.00 | 0.00 | 0.00 | 58 | 1016.1 |
| 20260506131542 | 8 | 344 | 4.8 | 19.3 | 0.00 | 0.00 | 0.00 | 59 | 1016.2 |
| 20260506130034 | 8 | 310 | 6.4 | 17.7 | 0.00 | 0.00 | 0.00 | 59 | 1016.2 |
| 20260506124534 | 8 | 299 | 6.4 | 16.1 | 0.00 | 0.00 | 0.00 | 61 | 1016.2 |
| 20260506123032 | 8 | 322 | 6.4 | 16.1 | 0.00 | 0.00 | 0.00 | 64 | 1016.2 |
| 20260506121531 | 8 | 299 | 6.4 | 17.7 | 0.00 | 0.00 | 0.00 | 64 | 1016.3 |
| 20260506120030 | 8 | 47 | 4.8 | 16.1 | 0.00 | 0.00 | 0.00 | 62 | 1016.4 |
| 20260506114536 | 7 | 314 | 4.8 | 14.5 | 0.00 | 0.00 | 0.00 | 61 | 1016.2 |
| 20260506113030 | 7 | 329 | 3.2 | 9.7 | 0.00 | 0.00 | 0.00 | 64 | 1016.2 |
| 20260506111527 | 7 | 316 | 1.6 | 12.9 | 0.00 | 0.00 | 0.00 | 67 | 1016.2 |
| 20260506110032 | 7 | 310 | 4.8 | 12.9 | 0.00 | 0.00 | 0.00 | 68 | 1016.2 |
| 20260506104526 | 6 | 313 | 6.4 | 16.1 | 0.00 | 0.00 | 0.00 | 69 | 1016.2 |
| 20260506103029 | 5 | 309 | 8.0 | 16.1 | 0.00 | 0.00 | 0.00 | 74 | 1016.2 |
| 20260506101526 | 6 | 291 | 6.4 | 19.3 | 0.00 | 0.00 | 0.00 | 74 | 1016.3 |
| 20260506100025 | 7 | 325 | 4.8 | 14.5 | 0.00 | 0.00 | 0.00 | 63 | 1016.1 |
| 20260506094522 | 7 | 349 | 1.6 | 9.7 | 0.00 | 0.00 | 0.00 | 64 | 1016.1 |
| 20260506093020 | 7 | 341 | 3.2 | 9.7 | 0.00 | 0.00 | 0.00 | 68 | 1016.1 |
| 20260506091521 | 7 | 299 | 1.6 | 9.7 | 0.00 | 0.00 | 0.00 | 67 | 1016.2 |
| 20260506090019 | 6 | 326 | 6.4 | 9.7 | 0.00 | 0.00 | 0.00 | 67 | 1016.2 |
| 20260506084519 | 7 | 332 | 3.2 | 12.9 | 0.00 | 0.00 | 0.00 | 66 | 1016.1 |
| 20260506083018 | 7 | 337 | 3.2 | 9.7 | 0.00 | 0.00 | 0.00 | 66 | 1016.0 |
| 20260506081518 | 6 | 316 | 1.6 | 14.5 | 0.00 | 0.00 | 0.00 | 68 | 1016.0 |
| 20260506073014 | 7 | 71 | 0.0 | 6.4 | 0.00 | 0.00 | 0.00 | 65 | 1015.9 |
| 20260506071510 | 6 | 354 | 0.0 | 4.8 | 0.00 | 0.00 | 0.00 | 69 | 1015.9 |
| 20260506061556 | 4 | 346 | 0.0 | 3.2 | 0.00 | 0.00 | 0.00 | 76 | 1015.8 |
| 20260506014520 | 3 | 35 | 0.0 | 4.8 | 0.00 | 0.00 | 0.00 | 79 | 1015.7 |
| 20260506013019 | 3 | 359 | 0.0 | 4.8 | 0.00 | 0.00 | 0.00 | 79 | 1015.6 |
| 20260506011528 | 3 | 341 | 1.6 | 6.4 | 0.00 | 0.00 | 0.00 | 79 | 1015.6 |
| 20260506010018 | 3 | 343 | 3.2 | 8.0 | 0.00 | 0.00 | 0.00 | 79 | 1015.5 |
| 20260506004530 | 3 | 333 | 3.2 | 8.0 | 0.00 | 0.00 | 0.00 | 80 | 1015.5 |
| 20260506003020 | 3 | 339 | 0.0 | 6.4 | 0.00 | 0.00 | 0.00 | 79 | 1015.6 |
| 20260506001515 | 3 | 327 | 1.6 | 4.8 | 0.00 | 0.00 | 0.00 | 79 | 1015.7 |
| 20260506000017 | 3 | 330 | 1.6 | 8.0 | 0.00 | 0.00 | 0.00 | 78 | 1015.7 |
| 20260505234511 | 3 | 312 | 3.2 | 6.4 | 0.00 | 0.00 | 0.00 | 77 | 1015.6 |
| 20260505233011 | 3 | 359 | 3.2 | 9.7 | 0.00 | 0.00 | 0.00 | 77 | 1015.6 |
| 20260505231508 | 3 | 297 | 3.2 | 12.9 | 0.00 | 0.00 | 0.00 | 77 | 1015.4 |
| 20260505230007 | 3 | 293 | 3.2 | 8.0 | 0.00 | 0.00 | 0.00 | 77 | 1015.5 |
| 20260505224506 | 3 | 297 | 3.2 | 6.4 | 0.00 | 0.00 | 0.00 | 76 | 1015.5 |
| 20260505223006 | 4 | 314 | 3.2 | 6.4 | 0.00 | 0.00 | 0.00 | 76 | 1015.6 |
| 20260505221505 | 4 | 315 | 1.6 | 12.9 | 0.00 | 0.00 | 0.00 | 75 | 1015.5 |
| 20260505220002 | 4 | 303 | 6.4 | 14.5 | 0.00 | 0.00 | 0.00 | 75 | 1015.7 |
| 20260505214502 | 4 | 316 | 4.8 | 9.7 | 0.00 | 0.00 | 0.00 | 75 | 1015.5 |
| 20260505213001 | 4 | 282 | 4.8 | 12.9 | 0.00 | 0.00 | 0.00 | 73 | 1015.5 |
| 20260505211501 | 4 | 284 | 3.2 | 16.1 | 0.00 | 0.00 | 0.00 | 73 | 1015.5 |
| 20260505210107 | 4 | 298 | 8.0 | 16.1 | 0.00 | 0.00 | 0.00 | 72 | 1015.6 |
| 20260505204601 | 4 | 340 | 6.4 | 14.5 | 0.00 | 0.00 | 0.00 | 74 | 1015.5 |
| 20260505203100 | 4 | 310 | 3.2 | 9.7 | 0.00 | 0.00 | 0.00 | 75 | 1015.5 |
| 20260505201601 | 5 | 326 | 6.4 | 16.1 | 0.00 | 0.00 | 0.00 | 74 | 1015.6 |
| 20260505200059 | 5 | 319 | 6.4 | 16.1 | 0.00 | 0.00 | 0.00 | 72 | 1015.6 |
| 20260505194601 | 5 | 299 | 3.2 | 14.5 | 0.00 | 0.00 | 0.00 | 72 | 1015.5 |
| 20260505193125 | 5 | 314 | 3.2 | 9.7 | 0.00 | 0.00 | 0.00 | 71 | 1015.4 |
| 20260505191604 | 5 | 324 | 8.0 | 17.7 | 0.00 | 0.00 | 0.00 | 71 | 1015.3 |
| 20260505190054 | 6 | 306 | 3.2 | 14.5 | 0.00 | 0.00 | 0.00 | 68 | 1015.2 |
| 20260505184556 | 6 | 309 | 3.2 | 16.1 | 0.00 | 0.00 | 0.00 | 67 | 1015.0 |
| 20260505183054 | 6 | 330 | 1.6 | 9.7 | 0.00 | 0.00 | 0.00 | 67 | 1015.0 |
| 20260505181554 | 5 | 296 | 4.8 | 12.9 | 0.00 | 0.00 | 0.00 | 72 | 1014.9 |